Tracking 29034 objects as of 25-Jun-2024
HD Live streaming from Space Station
objects crossing your sky now

THOR ABLESTAR DEB

Track THOR ABLESTAR DEB now!
10-day predictions


NORAD ID: 3125
Int'l Code: 1961-015HY
Perigee: 931.5 km
Apogee: 1,402.3 km
Inclination: 67.6 °
Period: 108.6 minutes
Semi major axis: 7537 km
RCS: 0.0125 m2 (small)
Launch date: June 29, 1961
Source: United States (US)
Launch site: AIR FORCE EASTERN TEST RANGE (AFETR)

Note: This is SATELLITE DEBRIS
Your satellite tracking list
Your tracking list is empty




NASA's NSSDC Master Catalog

Two Line Element Set (TLE):
1  3125U 61015HY  24176.85497139  .00000763  00000-0  14254-2 0  9994
2  3125  67.5576 348.5970 0312276 236.0947 245.7056 13.26566474 52265
Source of the keplerian elements: AFSPC